Regional Weather Roundup
Issued by NWS Sterling, VA

Home | Current Version | Previous Version | Text Only | Print | Product List | Glossary On
Versions: 1 2 3 4 5 6 7 8 9 10 11 12 13 14 15 16 17 18 19 20 21 22 23 24 25 26 27 28
000
ASUS41 KLWX 291310
RWRLWX

REGIONAL WEATHER ROUNDUP
NATIONAL WEATHER SERVICE BALTIMORE MD/WASHINGTON DC
900 AM EDT FRI APR 29 2016

Note: "FAIR" indicates few or no clouds below 12,000 feet
with no significant weather and/or obstructions to visibility.
 TC=TEMPERATURE CELSIUS

 * =Non NWS site. Station does not report precipitation (e.g. rain,
    snow, etc.), thunder, or fog.

DCZ001-MDZ009-015-VAZ040>042-051-053>054-291400-
WASHINGTON METRO

CITY           SKY/WX    TMP DP  RH WIND       PRES   REMARKS
WASHINGTON NAT CLOUDY    49  46  90 NE7       30.06R FOG
DULLES         FOG       48  45  89 N6        30.05S VSB 1
ANDREWS AFB    CLOUDY    47  46  96 NE6       30.04R FOG
FT BELVOIR     CLOUDY    49  47  91 VRB1      30.05R
QUANTICO       CLOUDY    50  47  89 N6        30.06R
COLLEGE PARK*  CLOUDY    46  45  93 N3        30.06R
LEESBURG*      CLOUDY    48  48 100 NE3       30.06F FOG
MANASSAS*      CLOUDY    48  48 100 CALM      30.05S FOG
GAITHERSBURG*  CLOUDY    45  43  93 CALM      30.09S

$$

MDZ006>007-011-014-291400-
BALTIMORE METRO

CITY           SKY/WX    TMP DP  RH WIND       PRES   REMARKS
BWI AIRPORT    DRIZZLE   47  46  97 VRB5      30.06R FOG
MD SCIENCE CTR   N/A     48  45  89 MISG      30.07S
MARTIN STATE   CLOUDY    48  48 100 CALM      30.07R FOG
ANNAPOLIS      CLOUDY    49  47  93 MISG      30.06R
FORT MEADE*    CLOUDY    46  45  93 N5        30.09R

$$

MDZ012-015-019>023-291400-
MARYLAND EASTERN SHORE

CITY           SKY/WX    TMP DP  RH WIND       PRES   REMARKS
OCEAN CITY     CLOUDY    51  49  92 NE12G21   30.03S
SALISBURY      CLOUDY    51  50  96 NE10      30.02S FOG
CAMBRIDGE*     CLOUDY    48  48 100 NE5       30.03S
EASTON*        CLOUDY   N/A N/A N/A E5        30.09R FOG

$$

MDZ017>025-291400-
SOUTHERN MARYLAND

CITY           SKY/WX    TMP DP  RH WIND       PRES   REMARKS
PATUXENT RIVER DRIZZLE   50  48  93 NE10      30.04R FOG
ST INIGOES     CLOUDY    51  49  92 NE9       30.02R FOG
LEONARDTOWN*   CLOUDY    50  46  87 CALM      30.05R

$$

MDZ003>005-291400-
NORTH CENTRAL MARYLAND

CITY           SKY/WX    TMP DP  RH WIND       PRES   REMARKS
FREDERICK*     CLOUDY    46  46 100 NE3       30.10R FOG
HAGERSTOWN APT LGT RAIN  47  44  90 E7        30.05S FOG
WESTMINSTER*   CLOUDY    45  43  93 E5        30.05S FOG

$$

MDZ501>502-291400-
WESTERN MARYLAND

CITY           SKY/WX    TMP DP  RH WIND       PRES   REMARKS
OAKLAND*       CLOUDY    50  50 100 W7        30.00R FOG
CUMBERLAND*    CLOUDY    48  48 100 CALM      30.07

$$

VAZ025>031-291400-
SHENANDOAH VALLEY

CITY           SKY/WX    TMP DP  RH WIND       PRES   REMARKS
WINCHESTER*    CLOUDY    46  46 100 CALM      30.04S FOG
FRONT ROYAL*   CLOUDY    46  45  93 N3        30.03S
LURAY*         CLOUDY    48  48 100 N5        30.03R FOG
NEW MARKET*    CLOUDY    48  47  99 N6        30.02R
STAUNTON*      FOG       53  53 100 NE5       30.03S VSB 3/4
WAYNESBORO*    CLOUDY    53  52  97 MISG      30.00S

$$

WVZ021-048>050-054>055-291400-
EASTERN WEST VIRGINIA PANHANDLE

CITY           SKY/WX    TMP DP  RH WIND       PRES   REMARKS
MARTINSBURG    CLOUDY    46  44  93 E3        30.04S FOG
PETERSBURG*    CLOUDY    50  49  96 CALM      30.03S FOG

$$

VAZ036>039-050-291400-
CENTRAL FOOTHILLS

CITY           SKY/WX    TMP DP  RH WIND       PRES   REMARKS
CHARLOTTESVILL CLOUDY    51  48  89 E6        30.03R FOG
CULPEPER*      CLOUDY    49  48  96 N3        30.06S FOG
ORANGE*        CLOUDY    50  50 100 CALM      30.05F FOG
GORDONSVILLE*  CLOUDY    49  49 100 NE5       30.03S FOG
WARRENTON*     CLOUDY    49  44  84 NE5       30.04S FOG

$$

VAZ055>057-291400-
NORTH AND CENTRAL PIEDMONT

CITY           SKY/WX    TMP DP  RH WIND       PRES   REMARKS
FREDERICKSBRG* CLOUDY    49  49 100 N3        30.05R FOG
STAFFORD*      CLOUDY    48  47  95 N5        30.09R FOG

$$

NCZ024-NYZ072-PAZ021-071-VAZ022-071-291400-
OTHER REGIONAL OBSERVATIONS

CITY           SKY/WX    TMP DP  RH WIND       PRES   REMARKS
NEW YORK CITY  CLOUDY    50  32  50 E5        30.13S
PHILADELPHIA   CLOUDY    50  40  68 E13G20    30.08R
PITTSBURGH     CLOUDY    47  44  90 CALM      29.99R FOG
ROANOKE        CLOUDY    59  58  96 CALM      30.03S
RICHMOND       DRIZZLE   51  50  96 NE8       30.03R FOG
RALEIGH        FOG       61  59  93 VRB3      30.00S VSB 1/2

$$

ANZ530>537-291400-
MARINE OBSERVATIONS

STATION/POSITION TIME  TEMP    WIND        PRES
                       AIR SEA DIR/SP/G
                 (UTC) (F)     (DEG/KT/KT) (MB)
THOMAS PT LIGHT  1300   48 57   70/ 10/ 12 1018.9R
BALT KEY BRIDGE  1200   48      60/  5/  9 1017.9R
COVE POINT       1200   49      50/  9/ 11 1017.6R
LEWISETTA        1200   51 60   50/  6/ 10 1016.3R
SOLOMONS ISLAND  1200   50 59   30/  7/  9   N/A
PINEY POINT      1206           60/  4/  5   N/A

$$





USA.gov is the U.S. government's official web portal to all federal, state and local government web resources and services.